Retour au catalogue

THOR ABLESTAR DEB

ActifLEO
NORAD 155·DEBRIS·🇺🇸 United States

Lancé Jun 29, 1961 depuis Cape Canaveral Space Force Station

Loading…

Prochains Passages (prochaines 24 heures)

TLE

FraisSource: Space-Track

Époque: Sep 14, 2026, 07:43 UTC

1 00155U 61015AR  26257.32183552  .00001872  00000-0  47545-3 0  9991
2 00155  66.8765  25.7857 0040026 193.5904 166.4133 14.52513370374052

Suivez THOR ABLESTAR DEB en temps réel avec AllMySat

Download on the App Store